[[{"header":{"parameterUnit":"m.s-1","parameterCategory":1,"la1":30.2991,"la2":30.254,"lo1":-89.0895,"lo2":-89.0444,"dx":0.0017,"dy":0.0017,"nx":28,"ny":28,"refTime":"2022-11-13T15:00:00:Z","depth":0,"parameterNumber":2,"parameterNumberName":"U-component_of_WINDS"},"data":[0,0,0,0,0,0,0,0,0,0,0,0,0,0,0,0,0,0,0,0,0,0,0,0,0,0,0,0,0,0,0,0,0,0,0,0,0,0,0,0,0,0,0,0,0,0,0,0,0,0,0,0,0,0,0,0,0,0,-1.4997,-1.4998,0,-1.5081,-1.5082,-1.5083,-1.5069,-1.5068,-1.5067,-1.5065,-1.5153,-1.5156,-1.516,0,0,0,0,0,0,0,0,0,0,0,0,0,-1.4824,-1.4827,-1.4997,-1.4998,-1.4999,-1.5081,-1.5082,-1.5083,-1.507,-1.5068,-1.5066,-1.5064,-1.5152,-1.5156,-1.516,0,0,0,0,0,0,0,0,0,0,0,0,0,-1.4903,-1.4828,-1.4996,-1.5002,-1.5003,-1.5081,-1.5082,-1.5084,-1.507,-1.5068,-1.5066,-1.5064,-1.515,-1.5156,-1.5161,-1.5239,0,0,-1.5178,-1.518,0,0,0,0,0,0,0,0,-1.4898,-1.4909,-1.5,-1.5002,-1.5003,-1.5062,-1.5053,-1.5136,-1.5071,-1.5045,-1.5065,-1.5063,-1.5125,-1.5132,-1.5153,-1.5243,-1.5247,-1.5178,-1.5182,-1.5184,-1.5186,0,0,0,0,0,0,0,-1.4893,-1.4905,-1.503,-1.5001,-1.5003,-1.5,-1.5009,-1.5069,-1.5096,-1.5047,-1.5046,-1.5056,-1.5125,-1.5148,-1.5155,-1.5248,-1.5178,-1.5183,-1.5187,-1.5189,-1.5407,-1.5409,0,0,0,0,0,0,-1.4886,-1.4901,-1.5027,-1.5033,-1.4944,-1.5005,-1.5015,-1.5046,-1.5095,-1.5101,-1.5058,-1.5055,-1.5139,-1.5148,-1.5158,-1.5253,-1.5184,-1.5189,-1.5193,-1.5404,-1.5407,-1.541,0,0,0,0,0,0,-1.4882,-1.4897,-1.5024,-1.4967,-1.4982,-1.501,-1.5045,-1.5048,-1.5071,-1.5104,-1.5108,-1.5076,-1.5138,-1.515,-1.5219,-1.5256,-1.5192,-1.5197,-1.5401,-1.5405,-1.5409,-1.5443,0,0,0,0,0,0,-1.4877,-1.4896,-1.4926,-1.4967,-1.4986,-1.5084,-1.5047,-1.5052,-1.508,-1.5078,-1.5122,-1.5127,-1.5137,-1.5211,-1.5224,-1.5262,-1.5201,-1.5398,-1.5403,-1.5407,-1.5439,-1.5448,-1.5455,0,0,0,0,0,-1.4871,-1.4933,-1.4927,-1.4943,-1.5023,-1.5086,-1.5096,-1.5106,-1.5083,-1.5114,-1.5135,-1.5126,-1.5249,-1.5218,-1.5233,-1.5273,-1.5396,-1.5402,-1.5407,-1.5436,-1.5446,-1.5455,0,0,0,0,0,0,-1.4895,-1.4938,-1.4933,-1.501,-1.5044,-1.5083,-1.5122,-1.5117,-1.5159,-1.5155,-1.5166,-1.5176,-1.5246,-1.5266,-1.523,-1.5351,-1.5319,-1.5328,-1.5336,-1.5346,-1.5354,-1.5349,-1.5206,0,0,0,0,0,-1.4909,-1.4956,-1.4991,-1.5055,-1.5073,-1.5094,-1.5122,-1.5126,-1.5163,-1.5177,-1.5203,-1.5239,-1.5286,-1.5317,-1.5362,-1.5441,-1.5451,-1.5476,-1.5484,-1.5491,-1.5499,-1.5543,-1.5555,-1.5428,-1.5428,-1.5428,0,0,-1.4939,-1.4968,-1.4997,-1.5061,-1.5088,-1.5137,-1.5107,-1.5159,-1.5196,-1.5186,-1.5252,-1.5272,-1.5313,-1.5388,-1.5422,-1.5407,-1.5536,-1.5498,-1.5503,-1.5508,-1.555,-1.5562,-1.5573,-1.5432,-1.5431,-1.5431,0,0,-1.5019,-1.5045,-1.5102,-1.513,-1.5171,-1.5185,-1.5198,-1.5238,-1.5251,-1.5318,-1.5312,-1.5355,-1.5435,-1.5465,-1.549,-1.558,-1.5573,-1.5594,-1.5637,-1.568,-1.569,-1.5699,-1.5732,-1.5743,-1.5601,-1.5601,-1.5601,0,-1.5051,-1.5124,-1.5132,-1.5185,-1.5213,-1.5205,-1.5263,-1.529,-1.5344,-1.5364,-1.5346,-1.5446,-1.5473,-1.5555,-1.5577,-1.5597,-1.5613,-1.559,-1.5687,-1.5696,-1.5705,-1.5737,-1.5749,-1.5604,-1.5604,-1.5603,-1.5603,0,-1.5162,-1.5212,-1.5253,-1.5305,-1.5338,-1.5393,-1.541,-1.5441,-1.5443,-1.5458,-1.5527,-1.5558,-1.561,-1.5629,-1.5631,-1.5711,-1.57,-1.5685,-1.5653,-1.5719,-1.5749,-1.5761,-1.5607,-1.5606,-1.5606,-1.5605,0,0,-1.5261,-1.5316,-1.5331,-1.5355,-1.5399,-1.5439,-1.5493,-1.5543,-1.5571,-1.5607,-1.5654,-1.5722,-1.5707,-1.5736,-1.5741,-1.5778,-1.5849,-1.5758,-1.5759,-1.5775,-1.594,-1.5952,-1.5966,-1.5843,-1.5846,-1.5848,-1.5937,0,-1.5346,-1.5443,-1.5451,-1.5538,-1.5585,-1.5577,-1.5625,-1.5658,-1.5673,-1.5716,-1.5733,-1.5781,-1.5758,-1.5776,-1.5812,-1.5832,-1.5882,-1.5826,-1.5888,-1.589,-1.588,-1.5982,-1.5996,-1.6078,-1.5948,-1.595,-1.5952,0,-1.5459,-1.5499,-1.5591,-1.5629,-1.5649,-1.5691,-1.5738,-1.5778,-1.5814,-1.5823,-1.5855,-1.5854,-1.5911,-1.5875,-1.5954,-1.5915,-1.5941,-1.5954,-1.5958,-1.5966,-1.5926,-1.5994,-1.6105,-1.6118,-1.597,-1.5969,-1.5967,0,-1.5524,-1.56,-1.5665,-1.5686,-1.5731,-1.5761,-1.5782,-1.5816,-1.5845,-1.5885,-1.5905,-1.5951,-1.5976,-1.6012,-1.6024,-1.5997,-1.6102,-1.6068,-1.6112,-1.6112,-1.6136,-1.6135,-1.6255,-1.615,-1.615,-1.6149,-1.6149,0,-1.5619,-1.5676,-1.5695,-1.5736,-1.5799,-1.5807,-1.587,-1.5888,-1.5919,-1.5962,-1.5958,-1.5999,-1.6012,-1.6055,-1.6065,-1.6128,-1.614,-1.6149,-1.6151,-1.6151,-1.615,-1.6169,-1.6164,-1.6153,-1.6152,-1.6151,-1.6151,0,-1.5703,-1.5718,-1.5789,-1.5825,-1.5836,-1.5881,-1.5913,-1.5951,-1.5966,-1.6021,-1.6035,-1.6057,-1.6108,-1.6123,-1.6184,-1.6191,-1.6266,-1.6262,-1.6254,-1.6254,-1.6298,-1.6294,-1.6436,-1.6455,-1.6336,-1.6337,-1.6338,0,-1.5764,-1.5807,-1.5848,-1.5877,-1.5899,-1.5945,-1.5975,-1.5984,-1.6015,-1.606,-1.6094,-1.6143,-1.6184,-1.6266,-1.6288,-1.6334,-1.6333,-1.6379,-1.634,-1.6338,-1.6335,-1.6333,-1.6338,-1.6387,-1.6388,-1.6389,-1.639,0,-1.5871,-1.5876,-1.5918,-1.5964,-1.5999,-1.6036,-1.6071,-1.6095,-1.6109,-1.6144,-1.6196,-1.6227,-1.6289,-1.6339,-1.6386,-1.6407,-1.6402,-1.6402,-1.6415,-1.6416,-1.641,-1.6415,-1.6276,-1.6399,-1.6398,-1.6398,-1.6397,-1.6397,-1.5946,-1.5984,-1.6019,-1.6067,-1.6094,-1.6127,-1.6165,-1.6184,-1.6227,-1.6278,-1.6281,-1.6337,-1.6372,-1.6434,-1.6458,-1.6502,-1.6488,-1.6507,-1.6512,-1.6517,-1.6521,-1.6401,-1.651,-1.651,-1.651,-1.651,-1.6509,0,-1.6054,-1.6075,-1.6119,-1.6168,-1.6206,-1.6195,-1.6233,-1.6266,-1.6315,-1.6348,-1.6388,-1.6447,-1.6495,-1.6521,-1.6569,-1.6599,-1.6598,-1.6612,-1.6611,-1.6616,-1.653,-1.6515,-1.6612,-1.6612,-1.6612,-1.6612,-1.6612,-1.6612,-1.6114,-1.6179,-1.6188,-1.6266,-1.6287,-1.6342,-1.6365,-1.6395,-1.6421,-1.6488,-1.6527,-1.6543,-1.6573,-1.6623,-1.6667,-1.6673,-1.6692,-1.6707,-1.6712,-1.6632,-1.6622,-1.6612,-1.6597,-1.6711,-1.6711,-1.6794,-1.6795,-1.6796]},{"header":{"parameterUnit":"m.s-1","parameterCategory":1,"la1":30.2991,"la2":30.254,"lo1":-89.0895,"lo2":-89.0444,"dx":0.0017,"dy":0.0017,"nx":28,"ny":28,"refTime":"2022-11-13T15:00:00:Z","depth":0,"parameterNumber":3,"parameterNumberName":"V-component_of_WINDS"},"data":[0,0,0,0,0,0,0,0,0,0,0,0,0,0,0,0,0,0,0,0,0,0,0,0,0,0,0,0,0,0,0,0,0,0,0,0,0,0,0,0,0,0,0,0,0,0,0,0,0,0,0,0,0,0,0,0,0,0,-7.2572,-7.2572,0,-7.2655,-7.2656,-7.2657,-7.259,-7.2587,-7.2584,-7.2582,-7.2661,-7.2666,-7.267,0,0,0,0,0,0,0,0,0,0,0,0,0,-7.2347,-7.2352,-7.2571,-7.2573,-7.2574,-7.2655,-7.2656,-7.2657,-7.259,-7.2587,-7.2583,-7.258,-7.266,-7.2665,-7.2671,0,0,0,0,0,0,0,0,0,0,0,0,0,-7.2439,-7.2353,-7.2571,-7.255,-7.2549,-7.2655,-7.2656,-7.2658,-7.2591,-7.2587,-7.2583,-7.2579,-7.2658,-7.2665,-7.2672,-7.2801,0,0,-7.2693,-7.2697,0,0,0,0,0,0,0,0,-7.2434,-7.2447,-7.2552,-7.2552,-7.2551,-7.2608,-7.2606,-7.2706,-7.2592,-7.2575,-7.2581,-7.2577,-7.2646,-7.2654,-7.2679,-7.2805,-7.2808,-7.2694,-7.2698,-7.2702,-7.2704,0,0,0,0,0,0,0,-7.2428,-7.2443,-7.2604,-7.2554,-7.2553,-7.2534,-7.2543,-7.2625,-7.2633,-7.2576,-7.2571,-7.2583,-7.2645,-7.2672,-7.268,-7.2809,-7.2694,-7.27,-7.2705,-7.2707,-7.3045,-7.3049,0,0,0,0,0,0,-7.2424,-7.2438,-7.2602,-7.2607,-7.2481,-7.2542,-7.2551,-7.2594,-7.2632,-7.2634,-7.2586,-7.2579,-7.2662,-7.2672,-7.2683,-7.2837,-7.2701,-7.2708,-7.2712,-7.304,-7.3046,-7.3051,0,0,0,0,0,0,-7.242,-7.2439,-7.2598,-7.2522,-7.254,-7.255,-7.2599,-7.2598,-7.2625,-7.264,-7.264,-7.2613,-7.2659,-7.2673,-7.2773,-7.2839,-7.2711,-7.2718,-7.3035,-7.3042,-7.3048,-7.3147,0,0,0,0,0,0,-7.2413,-7.2438,-7.2489,-7.2523,-7.2545,-7.2689,-7.2603,-7.2602,-7.2638,-7.263,-7.2665,-7.2667,-7.2657,-7.2762,-7.278,-7.2847,-7.2723,-7.3029,-7.3038,-7.3046,-7.3138,-7.3156,-7.3172,0,0,0,0,0,-7.2406,-7.2512,-7.2492,-7.2512,-7.2609,-7.2693,-7.2705,-7.2693,-7.2644,-7.2694,-7.2704,-7.2666,-7.2829,-7.2773,-7.2792,-7.2862,-7.3024,-7.3035,-7.3045,-7.313,-7.3153,-7.3172,0,0,0,0,0,0,-7.2482,-7.2516,-7.2494,-7.2615,-7.2652,-7.2681,-7.2744,-7.2717,-7.2767,-7.2757,-7.2738,-7.2747,-7.2852,-7.2867,-7.2804,-7.2989,-7.2918,-7.2933,-7.2976,-7.2998,-7.3015,-7.3009,-7.2729,0,0,0,0,0,-7.2514,-7.2581,-7.2606,-7.271,-7.273,-7.2734,-7.277,-7.2758,-7.2795,-7.2809,-7.2826,-7.2861,-7.292,-7.296,-7.3015,-7.3139,-7.3145,-7.3196,-7.3214,-7.3228,-7.3241,-7.3308,-7.3331,-7.3085,-7.3085,-7.3085,0,0,-7.2578,-7.2605,-7.2648,-7.2726,-7.2753,-7.2822,-7.2748,-7.2823,-7.2873,-7.282,-7.2916,-7.293,-7.2967,-7.308,-7.3131,-7.3096,-7.331,-7.3241,-7.3253,-7.3258,-7.3321,-7.3344,-7.3365,-7.3093,-7.3091,-7.309,0,0,-7.2732,-7.2759,-7.2849,-7.2878,-7.2921,-7.2924,-7.2945,-7.2979,-7.2987,-7.3084,-7.3045,-7.3103,-7.3206,-7.3235,-7.3263,-7.3428,-7.3394,-7.3446,-7.3536,-7.3601,-7.3621,-7.3638,-7.3697,-7.3718,-7.3459,-7.3459,-7.3459,0,-7.2806,-7.291,-7.2898,-7.2978,-7.3012,-7.297,-7.306,-7.3088,-7.3146,-7.317,-7.313,-7.3259,-7.3281,-7.34,-7.344,-7.3464,-7.3488,-7.3442,-7.3619,-7.3636,-7.3652,-7.3708,-7.373,-7.3465,-7.3464,-7.3464,-7.3463,0,-7.3,-7.3072,-7.314,-7.32,-7.3242,-7.3326,-7.3325,-7.3369,-7.3353,-7.3359,-7.3457,-7.3483,-7.3543,-7.357,-7.3554,-7.3687,-7.3664,-7.3622,-7.3551,-7.3682,-7.3734,-7.3755,-7.3473,-7.3471,-7.347,-7.3468,0,0,-7.3203,-7.3257,-7.3282,-7.3309,-7.3353,-7.3408,-7.349,-7.3551,-7.3589,-7.363,-7.3697,-7.3785,-7.3747,-7.3779,-7.3766,-7.3823,-7.3953,-7.3775,-7.3775,-7.3807,-7.41,-7.4132,-7.4157,-7.3931,-7.3935,-7.3938,-7.4097,0,-7.3359,-7.3504,-7.3496,-7.3631,-7.3698,-7.3658,-7.3729,-7.3763,-7.3771,-7.3827,-7.3834,-7.3897,-7.3842,-7.3861,-7.3916,-7.3926,-7.4011,-7.3914,-7.3992,-7.3995,-7.3985,-7.4184,-7.4218,-7.4366,-7.4118,-7.4121,-7.4123,0,-7.356,-7.3612,-7.3755,-7.379,-7.3817,-7.3882,-7.3937,-7.3992,-7.4029,-7.403,-7.4067,-7.4044,-7.4125,-7.4052,-7.4162,-7.4096,-7.4127,-7.4137,-7.4142,-7.4149,-7.4068,-7.4197,-7.4414,-7.4436,-7.4155,-7.4153,-7.4151,0,-7.3695,-7.3799,-7.3899,-7.3923,-7.3966,-7.4013,-7.4032,-7.4066,-7.4103,-7.415,-7.4174,-7.4229,-7.426,-7.4302,-7.4295,-7.4242,-7.4407,-7.4333,-7.441,-7.441,-7.4446,-7.4444,-7.4672,-7.4466,-7.4466,-7.4465,-7.4465,0,-7.387,-7.3959,-7.396,-7.4021,-7.4119,-7.4108,-7.4205,-7.4219,-7.4249,-7.431,-7.4278,-7.4336,-7.4323,-7.438,-7.4375,-7.4467,-7.448,-7.4483,-7.448,-7.4486,-7.4486,-7.4507,-7.4496,-7.4471,-7.447,-7.4469,-7.4468,0,-7.4038,-7.4042,-7.4148,-7.4181,-7.4191,-7.4262,-7.429,-7.4346,-7.4352,-7.443,-7.4448,-7.4455,-7.4521,-7.4518,-7.4592,-7.4588,-7.4702,-7.4687,-7.469,-7.4687,-7.4764,-7.4757,-7.5013,-7.5045,-7.4819,-7.4821,-7.4823,0,-7.4149,-7.4218,-7.4259,-7.43,-7.4323,-7.4388,-7.4427,-7.4417,-7.4458,-7.4506,-7.4557,-7.4621,-7.4671,-7.4777,-7.4788,-7.4844,-7.483,-7.4916,-7.4839,-7.4843,-7.4832,-7.4829,-7.4835,-7.4932,-7.4934,-7.4936,-7.4938,0,-7.4348,-7.4347,-7.4405,-7.4465,-7.4512,-7.4558,-7.4599,-7.4634,-7.4628,-7.4676,-7.4744,-7.4784,-7.486,-7.4923,-7.4977,-7.4994,-7.4966,-7.4962,-7.4983,-7.499,-7.4989,-7.4991,-7.4732,-7.4957,-7.4955,-7.4953,-7.4952,-7.4952,-7.4491,-7.455,-7.4589,-7.4655,-7.4686,-7.4726,-7.4781,-7.4794,-7.4852,-7.4915,-7.4905,-7.4982,-7.5016,-7.5086,-7.5109,-7.5167,-7.5136,-7.5166,-7.5174,-7.5182,-7.5191,-7.498,-7.5177,-7.5176,-7.5176,-7.5175,-7.5175,0,-7.4687,-7.4711,-7.4772,-7.4833,-7.4885,-7.4855,-7.4899,-7.4944,-7.5013,-7.5049,-7.51,-7.5178,-7.5239,-7.5255,-7.5313,-7.5357,-7.5345,-7.5372,-7.5369,-7.5374,-7.5215,-7.5191,-7.5381,-7.5381,-7.5381,-7.5381,-7.5381,-7.5381,-7.4796,-7.4895,-7.4898,-7.5011,-7.5033,-7.511,-7.5138,-7.5174,-7.5203,-7.5293,-7.5345,-7.5355,-7.5383,-7.5443,-7.5497,-7.55,-7.5523,-7.5556,-7.5554,-7.5405,-7.5385,-7.5365,-7.5343,-7.5561,-7.5562,-7.5708,-7.5709,-7.571]}]]